Location: Ciserano
(45.5833°N, 9.6000°E)
Time: 00:02:23
(UTC+00:00)

FALCON 9 DEB - Pass Details

Date: 14 April 2021
Orbit: 369 x 385 km, 53.0° (Epoch: 10 May)

Event Time Altitude Azimuth Distance (km) Brightness Sun altitude
Exits shadow 03:11:15 - 310° (NW) 1,609 5.8 -14.8°
Reaches altitude 10° 03:11:52 10° 315° (NW) 1,385 5.5 -14.7°
Maximum altitude 03:14:32 25° 15° (NNE) 798 5.0 -14.3°
Drops below altitude 10° 03:17:11 10° 74° (ENE) 1,391 7.0 -13.9°
Sets 03:19:27 0° 88° (E) 2,245 8.0 -13.5°
